Location: Newark
(34.1333°N, 7.9667°W)
Time: 10:27:59
(UTC+00:00)

Courier 1B Rocket - All Passes

Search period start: 13 June 2021 00:00
Search period end: 23 June 2021 00:00
Orbit: 920 x 1202 km, 28.2° (Epoch: 12 June)

Date Brightness Start Highest point End Pass type
(mag) Time Alt. Az. Time Alt. Az. Time Alt. Az.
13 Jun - 01:39:18 10° W 01:45:10 42° SSW 01:51:16 10° ESE visible
13 Jun - 03:33:18 10° WSW 03:38:03 21° SSW 03:42:59 10° SSE visible
13 Jun - 20:53:03 10° SW 20:58:20 28° SSE 21:03:32 10° ESE visible
13 Jun - 22:45:15 10° WSW 22:51:14 47° S 22:57:11 10° E visible
14 Jun - 00:38:19 10° W 00:44:15 47° S 00:50:21 10° ESE night (unlit)
14 Jun - 02:31:56 10° WSW 02:37:11 28° SSW 02:42:39 10° SE visible
14 Jun - 19:52:46 10° SSW 19:57:31 21° SSE 20:02:08 10° ESE daylight
14 Jun - 21:44:24 10° WSW 21:50:21 42° SSE 21:56:10 10° E visible
14 Jun - 23:37:21 10° WSW 23:43:21 50° S 23:49:25 10° ESE visible
15 Jun - 01:30:46 10° W 01:36:20 34° SSW 01:42:03 10° SE night (unlit)
15 Jun - 03:25:45 10° WSW 03:29:05 15° SSW 03:32:31 10° S visible
15 Jun - 18:52:54 10° S 18:56:41 16° SSE 19:00:21 10° ESE daylight
15 Jun - 20:43:39 10° SW 20:49:29 35° SSE 20:55:07 10° E visible
15 Jun - 22:36:23 10° WSW 22:42:27 50° S 22:48:28 10° ESE visible
16 Jun - 00:29:41 10° W 00:35:28 41° SSW 00:41:20 10° SE visible
16 Jun - 02:23:50 10° WSW 02:28:16 20° SSW 02:32:49 10° SSE night (unlit)
16 Jun - 17:54:21 10° SSE 17:55:49 11° SSE 17:57:16 10° SE daylight
16 Jun - 19:43:00 10° SW 19:48:36 29° SSE 19:53:59 10° ESE daylight
16 Jun - 21:35:24 10° WSW 21:41:33 48° S 21:47:31 10° E visible
16 Jun - 23:28:37 10° W 23:34:36 46° S 23:40:32 10° ESE visible
17 Jun - 01:22:23 10° WSW 01:27:27 26° SSW 01:32:38 10° SE night (unlit)
17 Jun - 18:42:34 10° SSW 18:47:44 23° SSE 18:52:39 10° ESE daylight
17 Jun - 20:34:27 10° WSW 20:40:39 43° S 20:46:34 10° E visible
17 Jun - 22:27:33 10° WSW 22:33:42 50° S 22:39:41 10° ESE visible
18 Jun - 00:21:07 10° W 00:26:38 33° SSW 00:32:10 10° SE visible
18 Jun - 02:16:25 10° SW 02:19:19 13° SSW 02:22:15 10° S night (unlit)
18 Jun - 17:42:31 10° SSW 17:46:50 17° SSE 17:50:59 10° ESE daylight
18 Jun - 19:33:34 10° SW 19:39:44 37° SSE 19:45:34 10° E daylight
18 Jun - 21:26:29 10° WSW 21:32:47 51° S 21:38:50 10° ESE visible
18 Jun - 23:19:57 10° W 23:25:47 40° SSW 23:31:34 10° SE visible
19 Jun - 01:14:17 10° WSW 01:18:32 19° SSW 01:22:49 10° SSE night (unlit)
19 Jun - 16:43:20 10° S 16:45:55 12° SSE 16:48:27 10° SE daylight
19 Jun - 18:32:48 10° SW 18:38:48 31° SSE 18:44:28 10° ESE daylight
19 Jun - 20:25:24 10° WSW 20:31:51 49° S 20:37:56 10° E visible
19 Jun - 22:18:47 10° W 22:24:55 46° S 22:30:51 10° ESE visible
20 Jun - 00:12:42 10° WSW 00:17:45 26° SSW 00:22:47 10° SSE visible
20 Jun - 17:32:15 10° SSW 17:37:51 25° SSE 17:43:10 10° ESE daylight
20 Jun - 19:24:20 10° WSW 19:30:53 45° S 19:37:00 10° E daylight
20 Jun - 21:17:37 10° WSW 21:24:00 51° S 21:30:05 10° ESE visible
20 Jun - 23:11:20 10° W 23:16:57 33° SSW 23:22:26 10° SE visible
21 Jun - 01:06:56 10° SW 01:09:34 13° SSW 01:12:13 10° S night (unlit)
21 Jun - 16:32:03 10° SSW 16:36:53 19° SSE 16:41:33 10° ESE daylight
21 Jun - 18:23:21 10° SW 18:29:54 39° SSE 18:36:01 10° E daylight
21 Jun - 20:16:26 10° WSW 20:23:02 52° S 20:29:15 10° ESE visible
21 Jun - 22:10:03 10° W 22:16:06 40° SSW 22:21:54 10° SE visible
22 Jun - 00:04:36 10° WSW 00:08:49 19° SSW 00:13:00 10° SSE visible
22 Jun - 15:32:35 10° S 15:35:56 13° SSE 15:39:12 10° SE daylight
22 Jun - 17:22:30 10° SW 17:28:53 33° SSE 17:34:54 10° E daylight
22 Jun - 19:15:15 10° WSW 19:22:02 51° S 19:28:22 10° E daylight
22 Jun - 21:08:47 10° W 21:15:12 47° S 21:21:15 10° ESE visible
22 Jun - 23:02:52 10° WSW 23:08:03 26° SSW 23:13:05 10° SSE visible
